Regional Weather Roundup
Issued by NWS

Home | Current Version | Previous Version | Text Only | Print | Product List | Glossary On
Versions: 1 2 3 4 5 6 7 8 9 10 11 12 13 14 15 16 17 18 19 20 21 22 23 24 25 26 27 28 29 30 31 32 33 34 35 36 37 38 39 40 41 42 43 44 45 46 47 48 49 50
000
ASUS43 KMPX 210501
RWRMN
WEATHER ROUNDUP FOR MINNESOTA
NATIONAL WEATHER SERVICE TWIN CITIES/CHANHASSEN MN
1100 PM CST THU NOV 20 2014


NOTE: "FAIR" INDICATES FEW OR NO CLOUDS BELOW 12,000 FEET WITH NO
SIGNIFICANT WEATHER AND/OR OBSTRUCTIONS TO VISIBILITY. N/A MEANS
CURRENT SKY AND/OR WEATHER CONDITIONS ARE NOT AVAILABLE.

MNZ060>063-068>070-210600-
   Twin Cities Metro

CITY           SKY/WX    TMP DP  RH WIND       PRES   REMARKS
TWIN CITIES    PTCLDY     7   2  80 S6        30.26R WCI  -3
ST PAUL        PTCLDY     7   3  84 S5        30.27R WCI  -2
CRYSTAL        PTCLDY     7   2  80 CALM      30.24R
BLAINE         PTCLDY     5   1  85 CALM      30.23R
LAKEVILLE      PTCLDY     1   0  92 CALM      30.25S
EDEN PRAIRIE   PTCLDY     5   1  83 S5        30.24R WCI  -4
SOUTH ST PAUL  PTCLDY     8   3  80 CALM      30.26R
LAKE ELMO      FAIR      -2  -6  84 S5        30.25R WCI -12
$$
MNZ001>005-007-008-013>017-022>024-027-028-210600-
   Northwest Minnesota

CITY           SKY/WX    TMP DP  RH WIND       PRES   REMARKS
BEMIDJI        MOCLDY     3  -3  79 S6        30.09S WCI  -8
HALLOCK        CLOUDY    12   5  73 S13       30.02F WCI  -3
ROSEAU         PTCLDY     5   0  78 S10       30.04F WCI -10
WARROAD        PTCLDY     3  -2  78 S7        30.05F WCI  -9
THIEF RVR FALL MOCLDY    10   3  72 S13       30.05F WCI  -5
CROOKSTON      MOCLDY    14   9  79 S15       30.09S WCI  -1
FOSSTON        MOCLDY     9   3  78 S12       30.08S WCI  -6
DETROIT LAKES  PTCLDY    10   7  85 S8        30.11S WCI  -1
MOORHEAD       PTCLDY    12   9  85 S13       30.12F WCI  -3
PARK RAPIDS    MOCLDY     2  -3  80 S6        30.11S WCI  -9
MAHNOMEN       FAIR      10   5  82 S8        30.09S WCI  -3
$$
MNZ006-009>011-018-025>026-210600-
   North Central Minnesota

CITY           SKY/WX    TMP DP  RH WIND       PRES   REMARKS
BAUDETTE       PTCLDY     0  -5  79 S3        30.07R
INTL FALLS     PTCLDY   -10 -17  71 CALM      30.10R
WASKISH        PTCLDY     1  -2  85 CALM      30.10R
BIG FORK       MOCLDY    -9 -15  77 CALM      30.10S
LONGVILLE      PTCLDY    -6  -9  84 CALM      30.13S
GRAND RAPIDS   MOCLDY    -6  -9  84 S5        30.10S WCI -17
CRANE LAKE     PTCLDY   -11 -15  84 CALM      30.14S
ORR            PTCLDY    -6  -9  84 CALM      30.08R
COOK           MOCLDY   -11 -17  77 CALM      30.12R
WALKER         FAIR       2  -4  77 SW5       30.11F WCI  -8
$$
MNZ012-019>021-037-210600-
   Northeast Minnesota

CITY           SKY/WX    TMP DP  RH WIND       PRES   REMARKS
DULUTH         MOCLDY    -2  -7  79 W6        30.12R WCI -14
ELY            PTCLDY   -11 -15  84 CALM      30.11R
HIBBING        MOCLDY   -11 -17  75 CALM      30.12R
EVELETH        MOCLDY    -8 -13  77 CALM      30.13R
DULUTH HARBOR  MOCLDY     9   0  66 CALM      30.21S
TWO HARBORS    PTCLDY     0  -6  78 S3        30.12S
SILVER BAY     PTCLDY     1  -4  78 CALM      30.12R
GRAND MARAIS     N/A      4  -1  80 NW3       30.15S
$$
MNZ029>031-032-039>041-046>048-054>057-064-210600-
   West Central Minnesota

CITY           SKY/WX    TMP DP  RH WIND       PRES   REMARKS
FERGUS FALLS   PTCLDY     7   1  78 S9        30.17F WCI  -7
WHEATON        PTCLDY     7   1  78 S10       30.17S WCI  -8
MORRIS         PTCLDY     0  -6  78 SE7       30.16R WCI -13
ALEXANDRIA     PTCLDY     4   0  83 S5        30.14F WCI  -5
ELBOW LAKE       N/A      3  -1  85 SE8       30.14F WCI -11
WADENA         PTCLDY     1  -2  85 S5        30.13S WCI  -8
GLENWOOD       PTCLDY     1  -2  85 S5        30.17S WCI  -8
APPLETON       PTCLDY     3   0  85 S6        30.19R WCI  -8
BENSON         PTCLDY     1  -2  85 S5        30.18S WCI  -8
ORTONVILLE     PTCLDY     1  -2  85 S6        30.16S WCI -10
MADISON        PTCLDY     1  -2  85 S5        30.19S WCI  -8
WILLMAR        FAIR       0  -6  78 CALM      30.21S
$$
MNZ033>034-036-042>043-049>051-058-059-210600-
   Central Minnesota

CITY           SKY/WX    TMP DP  RH WIND       PRES   REMARKS
ST CLOUD       MOCLDY    -2  -6  83 S5        30.21R WCI -12
SAUK CENTRE    FAIR      -1  -3  87 CALM      30.17F
PAYNESVILLE    PTCLDY    -9 -12  85 CALM      30.19S
AITKIN         PTCLDY    -2  -9  71 SW2       30.15R
PINE RIVER     PTCLDY    -4  -8  84 CALM      30.17S
BRAINERD       PTCLDY    -3  -6  87 S3        30.16S
STAPLES        MOCLDY    -4  -8  84 S3        30.16R
LONG PRAIRIE   FAIR      -2  -6  84 CALM      30.16F
LITTLE FALLS   PTCLDY    -4  -8  84 CALM      30.20R
LITCHFIELD     PTCLDY     3   1  92 CALM      30.22R
BUFFALO        MOCLDY     1  -2  85 CALM      30.23S
MAPLE LAKE     MOCLDY     0  -2  88 CALM      30.22S
$$
MNZ037-044-045-052-053-210600-
   East Central Minnesota

CITY           SKY/WX    TMP DP  RH WIND       PRES   REMARKS
PRINCETON      PTCLDY    -6  -9  84 CALM      30.22R
CAMBRIDGE      PTCLDY     1  -6  71 CALM      30.21R
RUSH CITY      MOCLDY    -1  -4  85 CALM      30.22R
MOOSE LAKE     MOCLDY    -8 -13  77 CALM      30.17R
HINCKLEY       FAIR      -8  -9  92 CALM      30.20R
CLOQUET        MOCLDY    -6 -11  77 W3        30.14S
MCGREGOR       PTCLDY    -2  -6  84 CALM      30.16R
$$
MNZ071>073-080-081-089-090-097-098-210600-
   Southwest Minnesota

CITY           SKY/WX    TMP DP  RH WIND       PRES   REMARKS
MONTEVIDEO     MOCLDY     5   3  92 SW7       30.21S WCI  -7
GRANITE FALLS  MOCLDY     1  -3  85 SE8       30.22S WCI -13
CANBY          PTCLDY     9   5  82 S6        30.18F WCI   0
MARSHALL       PTCLDY     5   0  78 S5        30.18F WCI  -4
REDWOOD FALLS  PTCLDY     2  -3  80 S7        30.23S WCI -11
OLIVIA         PTCLDY     3   0  85 S5        30.21S WCI  -6
PIPESTONE      CLEAR      9   5  85 S6        30.15S WCI  -1
WINDOM         CLEAR      3   1  92 CALM      30.21S
WORTHINGTON    PTCLDY     7   3  85 S5        30.20S WCI  -2
JACKSON        PTCLDY     5   1  85 S5        30.22R WCI  -4
TRACY          PTCLDY    10   6  82 S9        30.19F WCI  -2
SLAYTON        PTCLDY     4   2  91 S7        30.19R WCI  -8
$$
MNZ065>067-074>077-082>085-091>093-210600-
   South Central Minnesota

CITY           SKY/WX    TMP DP  RH WIND       PRES   REMARKS
MANKATO        PTCLDY     7   0  72 S6        30.24S WCI  -3
NEW ULM        PTCLDY     1   0  92 S6        30.24R WCI -10
ST JAMES       PTCLDY     5   1  85 S8        30.25S WCI  -8
FAIRMONT       PTCLDY     0  -6  78 S3        30.24R
GLENCOE        PTCLDY     2  -1  88 CALM      30.23F
FARIBAULT      MOCLDY     1   0  92 CALM      30.25S
OWATONNA       MOCLDY     3   0  85 SE3       30.24S
WASECA         MOCLDY     0  -6  78 CALM      30.26R
ALBERT LEA       N/A      3   0  85 SW3       30.24R
$$
MNZ078>079-086>088-094>096-210600-
   Southeast Minnesota

CITY           SKY/WX    TMP DP  RH WIND       PRES   REMARKS
ROCHESTER      CLEAR      1  -2  87 SW5       30.24R WCI  -9
RED WING         N/A     -2  -6  84 CALM      30.27R
STANTON        PTCLDY     1  -4  82 S3        30.24F
DODGE CENTER   MOCLDY     0  -2  92 SW5       30.23R WCI -10
WINONA         CLEAR     10   5  79 CALM      30.31R
AUSTIN         PTCLDY     0  -6  78 CALM      30.25R
PRESTON        PTCLDY     5   0  79 CALM      30.25S
$$
ABBREVIATIONS USED IN REMARKS
   TC - TEMPERATURES IN CELSIUS
  WCI - WIND CHILL INDEX
   HX - HEAT INDEX
  VSB - VISIBILITY
$$


USA.gov is the U.S. government's official web portal to all federal, state and local government web resources and services.